TimePST,TemperatureF,Dew PointF,Humidity,Sea Level PressureIn,VisibilityMPH,Wind Direction,Wind SpeedMPH,Gust SpeedMPH,PrecipitationIn,Events,Conditions,WindDirDegrees,DateUTC
12:56 AM,46.0,28.9,51,30.20,10.0,SSW,9.2,-,N/A,,Scattered Clouds,200,2013-01-09 08:56:00
1:56 AM,44.1,28.9,55,30.20,10.0,WSW,8.1,-,N/A,,Scattered Clouds,240,2013-01-09 09:56:00
2:56 AM,43.0,28.9,58,30.19,10.0,SW,8.1,-,N/A,,Scattered Clouds,220,2013-01-09 10:56:00
3:56 AM,42.1,28.9,60,30.18,10.0,SSW,5.8,-,N/A,,Scattered Clouds,210,2013-01-09 11:56:00
4:56 AM,42.1,28.9,60,30.18,10.0,SW,5.8,-,N/A,,Mostly Cloudy,220,2013-01-09 12:56:00
5:56 AM,43.0,28.9,58,30.17,10.0,SSW,10.4,-,N/A,,Scattered Clouds,200,2013-01-09 13:56:00
6:56 AM,42.8,28.4,57,30.19,10.0,SSW,5.8,-,N/A,,Scattered Clouds,210,2013-01-09 14:56:00
7:56 AM,43.0,28.9,58,30.21,10.0,SSW,4.6,-,N/A,,Mostly Cloudy,210,2013-01-09 15:56:00
8:56 AM,48.9,30.0,48,30.21,10.0,South,4.6,-,N/A,,Mostly Cloudy,190,2013-01-09 16:56:00
9:56 AM,53.1,30.0,41,30.20,10.0,SSW,5.8,-,N/A,,Mostly Cloudy,200,2013-01-09 17:56:00
10:56 AM,55.0,28.0,35,30.15,10.0,South,4.6,-,N/A,,Mostly Cloudy,190,2013-01-09 18:56:00
11:56 AM,57.9,27.0,31,30.10,10.0,South,3.5,-,N/A,,Mostly Cloudy,190,2013-01-09 19:56:00
12:56 PM,59.0,25.0,27,30.07,10.0,Calm,Calm,-,N/A,,Mostly Cloudy,0,2013-01-09 20:56:00
1:56 PM,59.0,26.1,28,30.05,10.0,South,3.5,-,N/A,,Mostly Cloudy,170,2013-01-09 21:56:00
2:56 PM,59.0,25.0,27,30.03,10.0,SE,3.5,-,N/A,,Mostly Cloudy,130,2013-01-09 22:56:00
3:56 PM,57.9,26.1,30,30.01,10.0,SE,5.8,-,N/A,,Mostly Cloudy,140,2013-01-09 23:56:00
4:56 PM,55.9,26.1,32,29.99,10.0,SE,4.6,-,N/A,,Mostly Cloudy,140,2013-01-10 00:56:00
5:56 PM,55.0,27.0,34,29.96,10.0,South,4.6,-,N/A,,Mostly Cloudy,170,2013-01-10 01:56:00
6:56 PM,54.0,27.0,35,29.95,10.0,South,4.6,-,N/A,,Mostly Cloudy,180,2013-01-10 02:56:00
7:56 PM,51.1,28.0,41,29.93,10.0,SSW,4.6,-,N/A,,Mostly Cloudy,210,2013-01-10 03:56:00
8:56 PM,48.9,28.0,44,29.91,10.0,West,5.8,-,N/A,,Mostly Cloudy,280,2013-01-10 04:56:00
9:56 PM,50.0,28.9,44,29.88,10.0,SSW,4.6,-,N/A,,Mostly Cloudy,200,2013-01-10 05:56:00
10:56 PM,48.2,28.4,46,29.86,10.0,SSW,5.8,-,N/A,,Overcast,210,2013-01-10 06:56:00
11:56 PM,48.0,28.9,48,29.82,10.0,SW,3.5,-,N/A,,Overcast,220,2013-01-10 07:56:00